Clarion, IA

6:21 PM CDT on May 23, 2018 (GMT -0500)
Clarion Municipal

Weather History for KCAV - February, 2012

Change the Weather History Date:

Wednesday, February 29, 2012

  Actual Average Record
Temperature  
Mean Temperature 40 °F -  
Max Temperature 46 °F - 55 °F (1964)
Min Temperature 33 °F - -12 °F (1960)
Degree Days  
Heating Degree Days 26    
Moisture  
Dew Point 33 °F    
Average Humidity 84    
Maximum Humidity 93    
Minimum Humidity 75    
Precipitation  
Precipitation 0.23 in - - ()
Sea Level Pressure  
Sea Level Pressure 29.37 in    
Wind  
Wind Speed 24 mph (WSW)    
Max Wind Speed 32 mph    
Max Gust Speed 43 mph    
Visibility 6 miles    
Events Rain , Snow    
Averages and records for this station are not official NWS values.
T = Trace of Precipitation, MM = Missing Value Source: NWS Daily Summary

Daily Weather History Graph

Daily Weather History Graph

Search for Another Location

Airport or City:

Astronomy

Feb. 29, 2012 Rise Set
Actual Time 6:51 AM CST 6:04 PM CST
Civil Twilight 6:23 AM CST 6:32 PM CST
Nautical Twilight 5:50 AM CST 7:05 PM CST
Astronomical Twilight 5:17 AM CST 7:37 PM CST
Moon 10:32 AM CST (2/29) 1:02 AM CST (2/29)
Length of Visible Light 12h 09m
Length of Day
11h 12m
Waxing Crescent, 47% of the Moon is Illuminated
Feb 29
Waxing Crescent
Feb 29
First Quarter
Mar 8
Full
Mar 14
Last Quarter
Mar 22
New

Hourly Weather History & Observations

Time (CST) Temp. Windchill Dew Point Humidity Pressure Visibility Wind Dir Wind Speed Gust Speed Precip Events Conditions
12:15 AM 42.8 °F 34.3 °F 39.2 °F 87% 29.37 in 4.0 mi ESE 19.6 mph - 0.03 in Rain Rain
12:35 AM 42.8 °F 33.1 °F 39.2 °F 87% 29.35 in 3.0 mi ESE 25.3 mph - 0.15 in Rain Rain
12:55 AM 44.6 °F 37.4 °F 41.0 °F 87% 29.34 in 5.0 mi ESE 16.1 mph - 0.21 in Rain Light Rain
1:15 AM 44.6 °F 35.9 °F 41.0 °F 87% 29.27 in 5.0 mi East 23.0 mph 28.8 mph 0.02 in Rain Light Rain
1:35 AM 42.8 °F 34.8 °F 39.2 °F 87% 29.26 in 4.0 mi ESE 17.3 mph 26.5 mph 0.02 in Rain Light Rain
1:55 AM 42.8 °F 35.4 °F 39.2 °F 87% 29.25 in 3.0 mi ESE 15.0 mph - 0.02 in   Overcast
2:15 AM 44.6 °F 37.8 °F 41.0 °F 87% 29.24 in 2.5 mi ESE 15.0 mph - N/A   Overcast
2:35 AM 44.6 °F 37.8 °F 42.8 °F 93% 29.23 in 2.0 mi SE 15.0 mph - N/A   Overcast
2:55 AM 46.4 °F 39.2 °F 42.8 °F 87% 29.23 in 4.0 mi SSE 18.4 mph - N/A   Overcast
3:15 AM 46.4 °F 38.3 °F 44.6 °F 93% 29.23 in 5.0 mi South 23.0 mph 28.8 mph N/A   Overcast
3:35 AM 44.6 °F 35.1 °F 39.2 °F 81% 29.24 in 10.0 mi SW 27.6 mph 38.0 mph N/A   Overcast
3:55 AM 42.8 °F 33.5 °F 35.6 °F 76% 29.26 in 10.0 mi SW 23.0 mph 35.7 mph N/A   Overcast
4:15 AM 39.2 °F 28.5 °F 33.8 °F 81% 29.27 in 10.0 mi SW 24.2 mph 36.8 mph N/A   Overcast
4:35 AM 37.4 °F 24.8 °F 32.0 °F 81% 29.27 in 10.0 mi SW 31.1 mph 39.1 mph N/A   Overcast
4:55 AM 37.4 °F 26.1 °F 30.2 °F 75% 29.27 in 10.0 mi SW 24.2 mph 40.3 mph N/A   Overcast
5:15 AM 35.6 °F 24.2 °F 30.2 °F 81% 29.27 in 10.0 mi SSW 21.9 mph 33.4 mph N/A   Overcast
5:35 AM 35.6 °F 23.2 °F 30.2 °F 81% 29.26 in 10.0 mi SSW 26.5 mph 32.2 mph N/A   Overcast
5:55 AM 35.6 °F 22.5 °F 30.2 °F 81% 29.26 in 10.0 mi SW 29.9 mph 35.7 mph N/A   Overcast
6:15 AM 35.6 °F 22.3 °F 28.4 °F 75% 29.24 in 10.0 mi SSW 31.1 mph 35.7 mph N/A   Overcast
6:35 AM 35.6 °F 22.7 °F 28.4 °F 75% 29.24 in 7.0 mi SSW 28.8 mph 39.1 mph N/A   Overcast
6:55 AM 35.6 °F 22.7 °F 30.2 °F 81% 29.24 in 5.0 mi SW 28.8 mph 35.7 mph N/A Snow Light Snow
7:15 AM 35.6 °F 22.5 °F 30.2 °F 81% 29.24 in 2.5 mi SW 29.9 mph 39.1 mph N/A   Overcast
7:35 AM 33.8 °F 20.3 °F 30.2 °F 87% 29.24 in 3.0 mi SW 28.8 mph 36.8 mph N/A   Overcast
7:55 AM 33.8 °F 20.5 °F 30.2 °F 87% 29.23 in 3.0 mi SW 27.6 mph 36.8 mph N/A   Overcast
8:15 AM 33.8 °F 20.8 °F 30.2 °F 87% 29.24 in 5.0 mi SW 26.5 mph 36.8 mph N/A   Overcast
8:35 AM 33.8 °F 20.8 °F 30.2 °F 87% 29.24 in 7.0 mi SW 26.5 mph 38.0 mph N/A   Overcast
8:55 AM 33.8 °F 20.1 °F 30.2 °F 87% 29.23 in 10.0 mi SW 29.9 mph 36.8 mph N/A   Overcast
9:15 AM 33.8 °F 20.5 °F 28.4 °F 81% 29.23 in 10.0 mi SW 27.6 mph 40.3 mph N/A   Overcast
9:35 AM 33.8 °F 19.9 °F 30.2 °F 87% 29.24 in 10.0 mi SW 31.1 mph 36.8 mph N/A   Overcast
9:55 AM 35.6 °F 22.7 °F 30.2 °F 81% 29.25 in 7.0 mi WSW 28.8 mph 38.0 mph N/A   Overcast
10:15 AM 33.8 °F 20.1 °F 30.2 °F 87% 29.26 in 2.0 mi WSW 29.9 mph 34.5 mph N/A Snow Light Snow
10:35 AM 33.8 °F 20.3 °F 30.2 °F 87% 29.27 in 0.8 mi SW 28.8 mph 36.8 mph N/A Snow Light Snow
10:55 AM 33.8 °F 20.3 °F 30.2 °F 87% 29.28 in 0.8 mi WSW 28.8 mph 42.6 mph N/A Snow Light Snow
11:35 AM 33.8 °F 20.1 °F 32.0 °F 93% 29.31 in 0.2 mi WSW 29.9 mph 34.5 mph N/A Snow Snow
12:15 PM 35.6 °F 24.0 °F 32.0 °F 87% 29.33 in 1.5 mi WSW 23.0 mph 28.8 mph N/A Snow Light Snow
12:35 PM 35.6 °F 24.0 °F 33.8 °F 93% 29.34 in 1.2 mi WSW 23.0 mph 28.8 mph N/A Snow Light Snow
12:55 PM 35.6 °F 23.0 °F 33.8 °F 93% 29.35 in 1.2 mi West 27.6 mph 34.5 mph N/A Snow Light Snow
1:15 PM 35.6 °F 22.5 °F 32.0 °F 87% 29.36 in 2.0 mi West 29.9 mph 35.7 mph N/A Snow Light Snow
1:35 PM 35.6 °F 22.3 °F 30.2 °F 81% 29.37 in 1.2 mi West 31.1 mph 34.5 mph N/A Snow Light Snow
1:55 PM 35.6 °F 23.0 °F 32.0 °F 87% 29.38 in 0.5 mi West 27.6 mph 36.8 mph N/A Snow Light Snow
2:15 PM 35.6 °F 22.1 °F 32.0 °F 87% 29.39 in 1.0 mi West 32.2 mph 38.0 mph N/A Snow Light Snow
2:35 PM 35.6 °F 22.7 °F 30.2 °F 81% 29.41 in 7.0 mi West 28.8 mph 35.7 mph N/A Snow Light Snow
2:55 PM 35.6 °F 22.3 °F 30.2 °F 81% 29.43 in 7.0 mi West 31.1 mph 38.0 mph N/A Snow Light Snow
3:15 PM 35.6 °F 22.3 °F 30.2 °F 81% 29.45 in 4.0 mi West 31.1 mph 36.8 mph N/A   Haze
3:35 PM 35.6 °F 23.0 °F 30.2 °F 81% 29.47 in 5.0 mi West 27.6 mph 34.5 mph N/A   Overcast
3:55 PM 35.6 °F 23.7 °F 30.2 °F 81% 29.50 in 10.0 mi West 24.2 mph 35.7 mph N/A   Overcast
4:15 PM 35.6 °F 23.2 °F 30.2 °F 81% 29.51 in 10.0 mi West 26.5 mph 36.8 mph N/A   Overcast
4:35 PM 35.6 °F 22.7 °F 30.2 °F 81% 29.52 in 10.0 mi West 28.8 mph 34.5 mph N/A   Overcast
4:55 PM 35.6 °F 23.4 °F 30.2 °F 81% 29.54 in 10.0 mi West 25.3 mph 36.8 mph N/A   Overcast
5:15 PM 35.6 °F 23.4 °F 30.2 °F 81% 29.56 in 10.0 mi West 25.3 mph 33.4 mph N/A   Overcast
5:35 PM 35.6 °F 23.4 °F 32.0 °F 87% 29.58 in 7.0 mi West 25.3 mph 33.4 mph N/A   Overcast
5:55 PM 35.6 °F 24.0 °F 32.0 °F 87% 29.59 in 7.0 mi West 23.0 mph 29.9 mph N/A   Overcast
6:15 PM 35.6 °F 23.4 °F 30.2 °F 81% 29.61 in 10.0 mi West 25.3 mph 32.2 mph N/A   Overcast
6:35 PM 35.6 °F 24.0 °F 30.2 °F 81% 29.62 in 10.0 mi West 23.0 mph - N/A   Overcast
6:55 PM 35.6 °F 23.4 °F 30.2 °F 81% 29.64 in 10.0 mi West 25.3 mph 31.1 mph N/A   Overcast
7:15 PM 35.6 °F 23.7 °F 30.2 °F 81% 29.65 in 10.0 mi West 24.2 mph 28.8 mph N/A   Overcast
7:35 PM 35.6 °F 23.4 °F 30.2 °F 81% 29.66 in 10.0 mi West 25.3 mph 31.1 mph N/A   Overcast
7:55 PM 35.6 °F 23.7 °F 30.2 °F 81% 29.67 in 10.0 mi West 24.2 mph 28.8 mph N/A   Overcast
8:15 PM 35.6 °F 23.7 °F 30.2 °F 81% 29.68 in 7.0 mi West 24.2 mph 31.1 mph N/A   Overcast
8:35 PM 35.6 °F 24.2 °F 30.2 °F 81% 29.69 in 5.0 mi West 21.9 mph 28.8 mph N/A   Overcast
8:55 PM 35.6 °F 24.5 °F 30.2 °F 81% 29.70 in 7.0 mi West 20.7 mph 26.5 mph N/A   Overcast
9:15 PM 35.6 °F 24.0 °F 30.2 °F 81% 29.72 in 10.0 mi West 23.0 mph 31.1 mph N/A   Overcast
9:35 PM 35.6 °F 24.8 °F 30.2 °F 81% 29.73 in 10.0 mi West 19.6 mph - N/A   Overcast
10:15 PM 35.6 °F 24.8 °F 30.2 °F 81% 29.74 in 10.0 mi West 19.6 mph 25.3 mph N/A   Overcast
10:35 PM 33.8 °F 22.5 °F 30.2 °F 87% 29.74 in 10.0 mi West 19.6 mph - N/A   Overcast
10:55 PM 33.8 °F 22.5 °F 30.2 °F 87% 29.74 in 10.0 mi WNW 19.6 mph 24.2 mph N/A   Overcast
11:15 PM 33.8 °F 22.2 °F 30.2 °F 87% 29.74 in 10.0 mi WNW 20.7 mph 24.2 mph N/A   Overcast
11:35 PM 33.8 °F 23.2 °F 30.2 °F 87% 29.74 in 10.0 mi WNW 17.3 mph - N/A   Overcast
11:55 PM 33.8 °F 23.2 °F 30.2 °F 87% 29.75 in 10.0 mi West 17.3 mph - N/A   Overcast